Weather History for Dodge City, KS

Change the Weather History Date:

Saturday, April 5, 2014

  Actual Average Record
Temperature  
Mean Temperature 48 °F -  
Max Temperature 66 °F 66 °F 92 °F (1967)
Min Temperature 30 °F 35 °F 20 °F (1936)
Degree Days  
Heating Degree Days 17    
Moisture  
Dew Point 25 °F    
Average Humidity 45    
Maximum Humidity 83    
Minimum Humidity 9    
Precipitation  
Precipitation 0.01 in - - ()
Sea Level Pressure  
Sea Level Pressure 30.01 in    
Wind  
Wind Speed 15 mph (South)    
Max Wind Speed 25 mph    
Max Gust Speed 37 mph    
Visibility 10 miles    
Events Rain    
Averages and records for this station are not official NWS values.
T = Trace of Precipitation, MM = Missing Value Source: NWS Daily Summary

Daily Weather History Graph

Daily Weather History Graph

Search for Another Location

Airport:

Trip Planner

Search our weather history database for the weather conditions in past years. The results will help you decide how hot, cold, wet, or windy it might be!

Date:

Astronomy

Apr. 05, 2014 Rise Set
Actual Time 7:19 AM CDT 8:06 PM CDT
Civil Twilight 6:52 AM CDT 8:33 PM CDT
Nautical Twilight 6:21 AM CDT 9:04 PM CDT
Astronomical Twilight 5:48 AM CDT 9:37 PM CDT
Moon 11:32 AM CDT (4/5) 1:14 AM CDT (4/5)
Length of Visible Light 13h 40m
Length of Day
12h 47m
Waxing Crescent, 34% of the Moon is Illuminated
Apr 5
Waxing Crescent
Apr 7
First Quarter
Apr 15
Full
Apr 22
Last Quarter
Apr 29
New

Hourly Weather History & Observations

Time (CDT) Temp. Windchill Dew Point Humidity Pressure Visibility Wind Dir Wind Speed Gust Speed Precip Events Conditions
12:52 AM 39.0 °F 31.0 °F 21.9 °F 50% 30.07 in 10.0 mi SSE 13.8 mph - N/A   Clear
1:52 AM 37.9 °F 29.6 °F 21.9 °F 53% 30.08 in 10.0 mi SSE 13.8 mph - N/A   Clear
2:52 AM 37.0 °F 28.9 °F 21.9 °F 54% 30.07 in 10.0 mi SSE 12.7 mph - N/A   Clear
3:52 AM 34.0 °F 25.0 °F 21.9 °F 61% 30.06 in 10.0 mi SSE 12.7 mph - N/A   Clear
4:52 AM 32.0 °F 23.6 °F 21.0 °F 64% 30.04 in 10.0 mi SE 10.4 mph - N/A   Clear
5:52 AM 34.0 °F 24.6 °F 21.9 °F 61% 30.02 in 10.0 mi SSE 13.8 mph - N/A   Clear
6:52 AM 34.0 °F 25.0 °F 21.9 °F 61% 30.03 in 10.0 mi South 12.7 mph - N/A   Clear
7:52 AM 37.0 °F 27.4 °F 21.9 °F 54% 30.04 in 10.0 mi SSE 17.3 mph - N/A   Clear
8:52 AM 39.9 °F 30.8 °F 21.9 °F 49% 30.06 in 10.0 mi South 18.4 mph - N/A   Clear
9:52 AM 44.1 °F 37.4 °F 23.0 °F 43% 30.06 in 10.0 mi SSE 13.8 mph - N/A   Clear
10:52 AM 48.0 °F - 23.0 °F 37% 30.06 in 10.0 mi South 17.3 mph - N/A   Scattered Clouds
11:52 AM 50.0 °F - 21.9 °F 33% 30.06 in 10.0 mi South 20.7 mph - N/A   Mostly Cloudy
12:52 PM 52.0 °F - 23.0 °F 32% 30.04 in 10.0 mi South 19.6 mph - N/A   Mostly Cloudy
1:52 PM 57.9 °F - 23.0 °F 26% 29.99 in 10.0 mi South 18.4 mph 27.6 mph N/A   Clear
2:52 PM 63.0 °F - 23.0 °F 22% 29.94 in 10.0 mi South 23.0 mph 29.9 mph N/A   Clear
3:52 PM 64.9 °F - 21.0 °F 19% 29.91 in 10.0 mi South 21.9 mph - N/A   Clear
4:52 PM 66.0 °F - 18.0 °F 16% 29.89 in 10.0 mi South 21.9 mph 29.9 mph N/A   Partly Cloudy
5:52 PM 64.0 °F - 19.0 °F 18% 29.88 in 10.0 mi South 19.6 mph 27.6 mph N/A   Clear
6:52 PM 60.1 °F - 27.0 °F 28% 29.90 in 10.0 mi SSW 17.3 mph - N/A   Mostly Cloudy
7:52 PM 55.0 °F - 30.0 °F 38% 29.94 in 10.0 mi South 25.3 mph 36.8 mph N/A   Overcast
8:52 PM 46.0 °F 40.6 °F 41.0 °F 83% 29.98 in 9.0 mi SSW 11.5 mph - 0.01 in Rain Light Rain
9:52 PM 46.0 °F 39.3 °F 39.9 °F 79% 30.00 in 10.0 mi SSW 16.1 mph - 0.00 in   Overcast
10:52 PM 45.0 °F 38.5 °F 39.9 °F 82% 30.01 in 10.0 mi South 13.8 mph - 0.00 in   Overcast
11:52 PM 45.0 °F 39.7 °F 39.9 °F 82% 29.99 in 10.0 mi SSE 10.4 mph - 0.00 in   Overcast